Weather History for Centerville, IA

Change the Weather History Date:

Monday, July 15, 2013

  Actual Average Record
Temperature  
Mean Temperature 75 °F -  
Max Temperature 86 °F 86 °F 98 °F (1988)
Min Temperature 64 °F 65 °F 51 °F (2014)
Cooling Degree Days 10    
Growing Degree Days 25 (Base 50)    
Moisture  
Dew Point 69 °F    
Average Humidity 81    
Maximum Humidity 100    
Minimum Humidity 62    
Precipitation  
Precipitation 0.00 in - - ()
Sea Level Pressure  
Sea Level Pressure 30.22 in    
Wind  
Wind Speed 1 mph (ESE)    
Max Wind Speed 9 mph    
Max Gust Speed -    
Visibility 10 miles    
Events      
Averages and records for this station are not official NWS values.
T = Trace of Precipitation, MM = Missing Value Source: NWS Daily Summary

Daily Weather History Graph

Daily Weather History Graph

Search for Another Location

Airport:

Trip Planner

Search our weather history database for the weather conditions in past years. The results will help you decide how hot, cold, wet, or windy it might be!

Date:

Astronomy

Jul. 15, 2013 Rise Set
Actual Time 5:53 AM CDT 8:41 PM CDT
Civil Twilight 5:21 AM CDT 9:13 PM CDT
Nautical Twilight 4:40 AM CDT 9:53 PM CDT
Astronomical Twilight 3:54 AM CDT 10:40 PM CDT
Moon 1:16 PM CDT (7/15) No Moon Set
Length of Visible Light 15h 52m
Length of Day
14h 47m
Waxing Crescent, 45% of the Moon is Illuminated
Jul 15
Waxing Crescent
Jul 15
First Quarter
Jul 22
Full
Jul 29
Last Quarter
Aug 6
New

Hourly Weather History & Observations

Time (CDT) Temp. Heat Index Dew Point Humidity Pressure Visibility Wind Dir Wind Speed Gust Speed Precip Events Conditions
12:15 AM 66.2 °F - 64.4 °F 94% 30.20 in 10.0 mi Calm Calm - N/A   Clear
12:35 AM 66.2 °F - 64.4 °F 94% 30.20 in 10.0 mi Calm Calm - N/A   Clear
12:55 AM 66.2 °F - 64.4 °F 94% 30.20 in 10.0 mi Calm Calm - N/A   Clear
1:15 AM 66.2 °F - 64.4 °F 94% 30.20 in 10.0 mi Calm Calm - N/A   Clear
1:35 AM 66.2 °F - 64.4 °F 94% 30.20 in 10.0 mi Calm Calm - N/A   Clear
1:55 AM 66.2 °F - 64.4 °F 94% 30.20 in 10.0 mi Calm Calm - N/A   Clear
2:15 AM 64.4 °F - 64.4 °F 100% 30.20 in 10.0 mi Calm Calm - N/A   Clear
2:35 AM 64.4 °F - 64.4 °F 100% 30.20 in 10.0 mi Calm Calm - N/A   Clear
2:55 AM 64.4 °F - 64.4 °F 100% 30.21 in 10.0 mi Calm Calm - N/A   Clear
3:15 AM 66.2 °F - 64.4 °F 94% 30.20 in 10.0 mi Calm Calm - N/A   Clear
3:35 AM 66.2 °F - 64.4 °F 94% 30.21 in 10.0 mi Calm Calm - N/A   Clear
3:55 AM 66.2 °F - 64.4 °F 94% 30.20 in 10.0 mi Calm Calm - N/A   Clear
4:15 AM 66.2 °F - 64.4 °F 94% 30.21 in 10.0 mi Calm Calm - N/A   Clear
4:35 AM 66.2 °F - 64.4 °F 94% 30.21 in 10.0 mi Calm Calm - N/A   Clear
4:55 AM 66.2 °F - 66.2 °F 100% 30.21 in 10.0 mi Calm Calm - N/A   Clear
5:15 AM 66.2 °F - 66.2 °F 100% 30.22 in 10.0 mi Calm Calm - N/A   Mostly Cloudy
5:35 AM 68.0 °F - 66.2 °F 94% 30.22 in 10.0 mi Calm Calm - N/A   Overcast
5:55 AM 68.0 °F - 66.2 °F 94% 30.23 in 10.0 mi Calm Calm - N/A   Mostly Cloudy
6:15 AM 68.0 °F - 66.2 °F 94% 30.23 in 10.0 mi Calm Calm - N/A   Scattered Clouds
6:35 AM 68.0 °F - 66.2 °F 94% 30.23 in 10.0 mi Calm Calm - N/A   Partly Cloudy
6:55 AM 68.0 °F - 66.2 °F 94% 30.24 in 10.0 mi Calm Calm - N/A   Partly Cloudy
7:15 AM 69.8 °F - 68.0 °F 94% 30.24 in 10.0 mi Calm Calm - N/A   Partly Cloudy
7:35 AM 71.6 °F - 68.0 °F 88% 30.25 in 10.0 mi Calm Calm - N/A   Clear
7:55 AM 71.6 °F - 68.0 °F 88% 30.25 in 10.0 mi Calm Calm - N/A   Clear
8:15 AM 71.6 °F - 69.8 °F 94% 30.26 in 10.0 mi Calm Calm - N/A   Clear
8:35 AM 73.4 °F - 69.8 °F 88% 30.25 in 10.0 mi Calm Calm - N/A   Clear
8:55 AM 75.2 °F - 69.8 °F 83% 30.26 in 10.0 mi Calm Calm - N/A   Clear
9:15 AM 77.0 °F - 69.8 °F 78% 30.26 in 10.0 mi East 8.1 mph - N/A   Clear
9:35 AM 77.0 °F - 71.6 °F 83% 30.26 in 10.0 mi East 8.1 mph - N/A   Clear
9:55 AM 77.0 °F - 71.6 °F 83% 30.26 in 10.0 mi East 6.9 mph - N/A   Clear
10:15 AM 77.0 °F - 71.6 °F 83% 30.26 in 10.0 mi East 3.5 mph - N/A   Partly Cloudy
10:35 AM 78.8 °F - 71.6 °F 78% 30.27 in 10.0 mi East 4.6 mph - N/A   Clear
10:55 AM 80.6 °F 84.6 °F 71.6 °F 74% 30.27 in 10.0 mi ESE 6.9 mph - N/A   Clear
11:15 AM 80.6 °F 84.6 °F 71.6 °F 74% 30.27 in 10.0 mi Calm Calm - N/A   Clear
11:35 AM 82.4 °F 87.2 °F 71.6 °F 70% 30.26 in 10.0 mi Calm Calm - N/A   Clear
11:55 AM 80.6 °F 84.6 °F 71.6 °F 74% 30.26 in 10.0 mi Calm Calm - N/A   Partly Cloudy
12:15 PM 82.4 °F 88.2 °F 73.4 °F 74% 30.26 in 10.0 mi Calm Calm - N/A   Scattered Clouds
12:35 PM 82.4 °F 87.2 °F 71.6 °F 70% 30.26 in 10.0 mi East 3.5 mph - N/A   Scattered Clouds
12:55 PM 82.4 °F 88.2 °F 73.4 °F 74% 30.25 in 10.0 mi East 6.9 mph - N/A   Partly Cloudy
1:15 PM 82.4 °F 87.2 °F 71.6 °F 70% 30.24 in 10.0 mi ENE 4.6 mph - N/A   Partly Cloudy
1:35 PM 84.2 °F 90.9 °F 73.4 °F 70% 30.24 in 10.0 mi East 8.1 mph - N/A   Clear
1:55 PM 84.2 °F 90.9 °F 73.4 °F 70% 30.23 in 10.0 mi East 5.8 mph - N/A   Clear
2:15 PM 86.0 °F 91.8 °F 71.6 °F 62% 30.22 in 10.0 mi SE 4.6 mph - N/A   Clear
2:35 PM 86.0 °F 93.4 °F 73.4 °F 66% 30.21 in 10.0 mi Calm Calm - N/A   Clear
2:55 PM 84.2 °F 89.6 °F 71.6 °F 66% 30.21 in 10.0 mi ESE 6.9 mph - N/A   Partly Cloudy
3:15 PM 86.0 °F 91.8 °F 71.6 °F 62% 30.21 in 10.0 mi ESE 9.2 mph - N/A   Scattered Clouds
3:35 PM 84.2 °F 89.6 °F 71.6 °F 66% 30.20 in 10.0 mi ESE 3.5 mph - N/A   Partly Cloudy
3:55 PM 86.0 °F 91.8 °F 71.6 °F 62% 30.20 in 10.0 mi Calm Calm - N/A   Clear
4:15 PM 86.0 °F 91.8 °F 71.6 °F 62% 30.19 in 10.0 mi SE 5.8 mph - N/A   Clear
4:35 PM 86.0 °F 91.8 °F 71.6 °F 62% 30.19 in 10.0 mi ESE 6.9 mph - N/A   Partly Cloudy
4:55 PM 86.0 °F 91.8 °F 71.6 °F 62% 30.19 in 10.0 mi ESE 9.2 mph - N/A   Clear
5:15 PM 86.0 °F 91.8 °F 71.6 °F 62% 30.19 in 10.0 mi SE 5.8 mph - N/A   Clear
5:35 PM 86.0 °F 91.8 °F 71.6 °F 62% 30.18 in 10.0 mi SE 8.1 mph - N/A   Clear
5:55 PM 86.0 °F 91.8 °F 71.6 °F 62% 30.18 in 10.0 mi Calm Calm - N/A   Clear
6:15 PM 86.0 °F 91.8 °F 71.6 °F 62% 30.18 in 10.0 mi Calm Calm - N/A   Partly Cloudy
6:35 PM 86.0 °F 91.8 °F 71.6 °F 62% 30.18 in 10.0 mi Calm Calm - N/A   Partly Cloudy
6:55 PM 84.2 °F 89.6 °F 71.6 °F 66% 30.18 in 10.0 mi ESE 4.6 mph - N/A   Clear
7:15 PM 84.2 °F 89.6 °F 71.6 °F 66% 30.18 in 10.0 mi ESE 8.1 mph - N/A   Partly Cloudy
7:35 PM 82.4 °F 87.2 °F 71.6 °F 70% 30.19 in 10.0 mi ESE 4.6 mph - N/A   Scattered Clouds
7:55 PM 80.6 °F 83.9 °F 69.8 °F 70% 30.19 in 10.0 mi ESE 3.5 mph - N/A   Partly Cloudy
8:15 PM 80.6 °F 84.6 °F 71.6 °F 74% 30.19 in 10.0 mi Calm Calm - N/A   Clear
8:35 PM 78.8 °F - 71.6 °F 78% 30.20 in 10.0 mi Calm Calm - N/A   Clear
8:55 PM 77.0 °F - 71.6 °F 83% 30.21 in 10.0 mi Calm Calm - N/A   Clear
9:15 PM 77.0 °F - 71.6 °F 83% 30.21 in 10.0 mi Calm Calm - N/A   Clear
9:35 PM 75.2 °F - 71.6 °F 89% 30.22 in 10.0 mi Calm Calm - N/A   Clear
10:15 PM 75.2 °F - 71.6 °F 89% 30.23 in 10.0 mi Calm Calm - N/A   Clear
10:35 PM 73.4 °F - 71.6 °F 94% 30.24 in 10.0 mi Calm Calm - N/A   Clear
10:55 PM 73.4 °F - 71.6 °F 94% 30.23 in 10.0 mi Calm Calm - N/A   Clear
11:15 PM 73.4 °F - 71.6 °F 94% 30.24 in 10.0 mi Calm Calm - N/A   Clear
11:35 PM 73.4 °F - 71.6 °F 94% 30.24 in 10.0 mi Calm Calm - N/A   Clear
11:55 PM 73.4 °F - 71.6 °F 94% 30.24 in 10.0 mi Calm Calm - N/A   Clear